| time (UTC) | temp C | wind direction | speed KPH | gust KPH | rain 1hr cm | rain 24hr cm | rain mn cm | humidity % | barometer mb |
| 20260906071555 | 20 | 0 | 0.0 | 0.0 | 0.00 | 0.69 | 0.00 | 97 | 1011.7 |
| 20260906070047 | 20 | 0 | 0.0 | 0.0 | 0.00 | 0.69 | 0.00 | 96 | 1011.8 |
| 20260906064554 | 20 | 0 | 0.0 | 0.0 | 0.00 | 0.69 | 0.00 | 96 | 1012.3 |
| 20260906063058 | 20 | 0 | 0.0 | 0.0 | 0.00 | 0.69 | 0.00 | 96 | 1012.5 |
| 20260906061606 | 20 | 0 | 0.0 | 0.0 | 0.00 | 0.69 | 0.00 | 96 | 1012.9 |
| 20260906060055 | 20 | 0 | 0.0 | 0.0 | 0.00 | 0.69 | 0.00 | 96 | 1012.9 |
| 20260906054551 | 20 | 0 | 0.0 | 0.0 | 0.00 | 0.69 | 0.00 | 97 | 1012.8 |
| 20260906053056 | 20 | 0 | 0.0 | 0.0 | 0.00 | 0.69 | 0.00 | 97 | 1013.1 |
| 20260906051602 | 20 | 0 | 0.0 | 0.0 | 0.00 | 0.69 | 0.00 | 96 | 1013.2 |
| 20260906050056 | 21 | 0 | 0.0 | 0.0 | 0.00 | 0.69 | 0.00 | 96 | 1013.3 |
| 20260906044551 | 21 | 0 | 0.0 | 0.0 | 0.00 | 0.69 | 0.00 | 96 | 1013.3 |
| 20260906043055 | 21 | 0 | 0.0 | 0.0 | 0.00 | 0.69 | 0.00 | 97 | 1013.3 |
| 20260906041553 | 21 | 0 | 0.0 | 0.0 | 0.00 | 0.69 | 0.00 | 96 | 1013.6 |
| 20260906034558 | 21 | 0 | 0.0 | 0.0 | 0.00 | 0.69 | 0.69 | 96 | 1013.5 |
| 20260906033057 | 21 | 0 | 0.0 | 0.0 | 0.00 | 0.69 | 0.69 | 96 | 1013.6 |
| 20260906031558 | 21 | 0 | 0.0 | 0.0 | 0.00 | 0.69 | 0.69 | 95 | 1013.7 |
| 20260906030057 | 22 | 0 | 0.0 | 0.0 | 0.00 | 0.69 | 0.69 | 94 | 1013.6 |
| 20260906024556 | 22 | 0 | 0.0 | 0.0 | 0.00 | 0.69 | 0.69 | 95 | 1013.4 |
| 20260906023051 | 22 | 0 | 0.0 | 0.0 | 0.00 | 0.69 | 0.69 | 95 | 1013.3 |
| 20260906021550 | 22 | 0 | 0.0 | 1.6 | 0.00 | 0.69 | 0.69 | 95 | 1013.3 |
| 20260906014554 | 22 | 0 | 0.0 | 0.0 | 0.00 | 0.69 | 0.69 | 95 | 1013.1 |
| 20260906013051 | 22 | 0 | 0.0 | 0.0 | 0.00 | 0.69 | 0.69 | 94 | 1013.3 |
| 20260906011554 | 22 | 0 | 1.6 | 3.2 | 0.00 | 0.69 | 0.69 | 94 | 1013.0 |
| 20260906010100 | 22 | 0 | 0.0 | 0.0 | 0.00 | 0.69 | 0.69 | 93 | 1012.8 |
| 20260906004551 | 23 | 0 | 0.0 | 0.0 | 0.00 | 0.69 | 0.69 | 92 | 1012.8 |
| 20260906003058 | 23 | 0 | 0.0 | 0.0 | 0.00 | 0.69 | 0.69 | 92 | 1012.5 |
| 20260906001557 | 24 | 0 | 0.0 | 0.0 | 0.00 | 0.69 | 0.69 | 89 | 1012.1 |
| 20260906000100 | 24 | 0 | 0.0 | 0.0 | 0.00 | 0.69 | 0.69 | 88 | 1012.1 |
| 20260905234553 | 25 | 0 | 0.0 | 0.0 | 0.00 | 0.69 | 0.69 | 85 | 1012.0 |
| 20260905233059 | 25 | 0 | 0.0 | 0.0 | 0.00 | 0.69 | 0.69 | 84 | 1011.8 |
| 20260905231554 | 26 | 0 | 0.0 | 1.6 | 0.00 | 0.69 | 0.69 | 81 | 1011.9 |
| 20260905230100 | 27 | 0 | 0.0 | 0.0 | 0.00 | 0.69 | 0.69 | 79 | 1011.8 |
| 20260905224608 | 27 | 109 | 0.0 | 3.2 | 0.00 | 0.69 | 0.69 | 77 | 1011.8 |
| 20260905223059 | 27 | 0 | 0.0 | 1.6 | 0.00 | 0.69 | 0.69 | 78 | 1011.9 |
| 20260905221606 | 28 | 128 | 0.0 | 3.2 | 0.00 | 0.69 | 0.69 | 72 | 1011.9 |
| 20260905220108 | 28 | 0 | 0.0 | 4.8 | 0.00 | 0.69 | 0.69 | 73 | 1011.9 |
| 20260905214602 | 28 | 0 | 0.0 | 1.6 | 0.00 | 0.69 | 0.69 | 74 | 1012.0 |
| 20260905213101 | 28 | 0 | 0.0 | 4.8 | 0.00 | 0.69 | 0.69 | 76 | 1012.4 |
| 20260905211627 | 28 | 91 | 0.0 | 3.2 | 0.00 | 0.69 | 0.69 | 76 | 1012.4 |
| 20260905210120 | 28 | 302 | 0.0 | 3.2 | 0.00 | 0.69 | 0.69 | 83 | 1012.2 |
| 20260905204558 | 27 | 0 | 0.0 | 1.6 | 0.00 | 0.69 | 0.69 | 84 | 1012.1 |
| 20260905203116 | 26 | 0 | 0.0 | 3.2 | 0.00 | 0.69 | 0.69 | 84 | 1012.4 |
| 20260905201600 | 26 | 0 | 0.0 | 1.6 | 0.00 | 0.69 | 0.69 | 87 | 1012.4 |
| 20260905194556 | 26 | 0 | 0.0 | 0.0 | 0.00 | 0.69 | 0.69 | 87 | 1012.8 |
| 20260905193059 | 26 | 0 | 0.0 | 3.2 | 0.00 | 0.69 | 0.69 | 89 | 1012.6 |
| 20260905191556 | 26 | 0 | 0.0 | 3.2 | 0.00 | 0.69 | 0.69 | 91 | 1012.6 |
| 20260905190055 | 25 | 0 | 0.0 | 1.6 | 0.00 | 0.69 | 0.69 | 93 | 1012.4 |
| 20260905184603 | 25 | 0 | 0.0 | 0.0 | 0.03 | 0.69 | 0.69 | 95 | 1012.0 |
| 20260905183059 | 24 | 0 | 0.0 | 0.0 | 0.66 | 0.69 | 0.69 | 94 | 1012.6 |
| 20260905181608 | 23 | 0 | 0.0 | 0.0 | 0.69 | 0.69 | 0.69 | 92 | 1013.3 |
| 20260905180049 | 25 | 0 | 0.0 | 0.0 | 0.69 | 0.69 | 0.69 | 91 | 1013.2 |
| 20260905174553 | 26 | 87 | 3.2 | 19.3 | 0.66 | 0.66 | 0.66 | 78 | 1014.5 |
| 20260905173057 | 31 | 0 | 0.0 | 4.8 | 0.03 | 0.03 | 0.03 | 69 | 1014.4 |
| 20260905171555 | 35 | 213 | 1.6 | 6.4 | 0.00 | 0.00 | 0.00 | 57 | 1013.6 |
| 20260905170104 | 35 | 98 | 1.6 | 9.7 | 0.00 | 0.00 | 0.00 | 52 | 1013.8 |
| 20260905164556 | 35 | 248 | 0.0 | 8.0 | 0.00 | 0.00 | 0.00 | 52 | 1014.0 |
| 20260905163055 | 35 | 325 | 1.6 | 9.7 | 0.00 | 0.00 | 0.00 | 52 | 1014.1 |
| 20260905161548 | 35 | 140 | 3.2 | 14.5 | 0.00 | 0.00 | 0.00 | 52 | 1014.2 |
| 20260905160132 | 35 | 133 | 1.6 | 8.0 | 0.00 | 0.00 | 0.00 | 53 | 1014.4 |
| 20260905154554 | 35 | 111 | 3.2 | 9.7 | 0.00 | 0.00 | 0.00 | 53 | 1014.4 |
| 20260905153054 | 34 | 107 | 4.8 | 12.9 | 0.00 | 0.00 | 0.00 | 54 | 1014.3 |
| 20260905151557 | 34 | 0 | 0.0 | 9.7 | 0.00 | 0.00 | 0.00 | 57 | 1014.3 |
| 20260905150055 | 34 | 240 | 0.0 | 6.4 | 0.00 | 0.00 | 0.00 | 59 | 1014.2 |
| 20260905144555 | 33 | 0 | 1.6 | 9.7 | 0.00 | 0.00 | 0.00 | 58 | 1014.4 |
| 20260905143056 | 34 | 299 | 0.0 | 3.2 | 0.00 | 0.00 | 0.00 | 60 | 1014.5 |
| 20260905141558 | 33 | 132 | 0.0 | 3.2 | 0.00 | 0.00 | 0.00 | 62 | 1014.5 |
| 20260905140055 | 32 | 152 | 0.0 | 3.2 | 0.00 | 0.00 | 0.00 | 62 | 1014.4 |
| 20260905134601 | 32 | 154 | 0.0 | 3.2 | 0.00 | 0.00 | 0.00 | 66 | 1014.4 |
| 20260905133051 | 31 | 0 | 0.0 | 0.0 | 0.00 | 0.00 | 0.00 | 71 | 1014.6 |
| 20260905131602 | 30 | 0 | 0.0 | 0.0 | 0.00 | 0.00 | 0.00 | 75 | 1014.8 |
| 20260905130052 | 27 | 0 | 0.0 | 0.0 | 0.00 | 0.00 | 0.00 | 82 | 1014.9 |
| 20260905124558 | 25 | 0 | 0.0 | 0.0 | 0.00 | 0.00 | 0.00 | 90 | 1014.9 |
| 20260905123055 | 22 | 0 | 0.0 | 0.0 | 0.00 | 0.00 | 0.00 | 97 | 1014.9 |
| 20260905121552 | 21 | 0 | 0.0 | 0.0 | 0.00 | 0.00 | 0.00 | 97 | 1014.6 |
| 20260905120116 | 20 | 0 | 0.0 | 0.0 | 0.00 | 0.00 | 0.00 | 97 | 1014.5 |
| 20260905114547 | 20 | 0 | 0.0 | 0.0 | 0.00 | 0.00 | 0.00 | 97 | 1014.5 |
| 20260905113055 | 20 | 0 | 0.0 | 0.0 | 0.00 | 0.00 | 0.00 | 97 | 1014.3 |
| 20260905111608 | 20 | 0 | 0.0 | 0.0 | 0.00 | 0.00 | 0.00 | 97 | 1014.2 |
| 20260905110056 | 20 | 0 | 0.0 | 0.0 | 0.00 | 0.00 | 0.00 | 97 | 1014.0 |
| 20260905104556 | 20 | 0 | 0.0 | 0.0 | 0.00 | 0.00 | 0.00 | 96 | 1013.9 |
| 20260905103056 | 20 | 0 | 0.0 | 0.0 | 0.00 | 0.00 | 0.00 | 96 | 1013.9 |
| 20260905101556 | 20 | 0 | 0.0 | 0.0 | 0.00 | 0.00 | 0.00 | 96 | 1013.8 |
| 20260905100056 | 20 | 0 | 0.0 | 0.0 | 0.00 | 0.00 | 0.00 | 96 | 1013.8 |
| 20260905094556 | 20 | 0 | 0.0 | 0.0 | 0.00 | 0.00 | 0.00 | 96 | 1013.6 |
| 20260905093053 | 20 | 0 | 0.0 | 0.0 | 0.00 | 0.00 | 0.00 | 95 | 1013.7 |
| 20260905091615 | 20 | 0 | 0.0 | 0.0 | 0.00 | 0.00 | 0.00 | 95 | 1013.6 |
| 20260905090118 | 20 | 0 | 0.0 | 0.0 | 0.00 | 0.00 | 0.00 | 95 | 1013.6 |
| 20260905084607 | 20 | 0 | 0.0 | 0.0 | 0.00 | 0.00 | 0.00 | 95 | 1013.8 |
| 20260905083049 | 20 | 0 | 0.0 | 0.0 | 0.00 | 0.00 | 0.00 | 95 | 1013.9 |
| 20260905081556 | 21 | 0 | 0.0 | 0.0 | 0.00 | 0.00 | 0.00 | 95 | 1014.0 |
| 20260905080056 | 21 | 0 | 0.0 | 0.0 | 0.00 | 0.00 | 0.00 | 94 | 1014.3 |
| 20260905074556 | 21 | 0 | 0.0 | 0.0 | 0.00 | 0.00 | 0.00 | 94 | 1014.4 |
| 20260905073103 | 21 | 0 | 0.0 | 0.0 | 0.00 | 0.00 | 0.00 | 94 | 1014.3 |